Tracking 19827 objects as of 22-Aug-2019
HD Live streaming from Space Station
objects crossing your sky now

COSMOS 2251 DEB

Track COSMOS 2251 DEB now!
10-day predictions


NORAD ID: 35039
Int'l Code: 1993-036AHC
Perigee: 652.5 km
Apogee: 690.4 km
Inclination: 74.0 °
Period: 98.0 minutes
Semi major axis: 7042 km
RCS: 0.0039 m2 (small)
Launch date: June 16, 1993
Source: Commonwealth of Independent States (former USSR) (CIS)
Launch site: PLESETSK MISSILE AND SPACE COMPLEX (PKMTR)

Note: This is SATELLITE DEBRIS
aabbcc
Your satellite tracking list
Your tracking list is empty




NASA's NSSDC Master Catalog

Two Line Element Set (TLE):
1 35039U 93036AHC 19232.77116879  .00001533  00000-0  26571-3 0  9990
2 35039  74.0182 358.0531 0026894 288.9507  70.8749 14.68973864546676
Source of the keplerian elements: AFSPC